Location: D�pe
(52.6057°N, 8.1808°E)
Time: 14:38:51
(UTC+00:00)

AQUARIUS - Pass Details

Date: 29 October 2020
Orbit: 650 x 653 km, 98.0° (Epoch: 28 November)

Event Time Altitude Azimuth Distance (km) Brightness Sun altitude
Rises 16:32:35 0° 158° (SSE) 2,965 7.5 -5.2°
Reaches altitude 10° 16:34:48 10° 157° (SSE) 2,059 6.7 -5.5°
Maximum altitude 16:39:17 75° 73° (ENE) 683 4.1 -6.2°
Drops below altitude 10° 16:43:48 10° 348° (NNW) 2,074 6.7 -6.8°
Sets 16:46:01 0° 347° (NNW) 2,989 7.6 -7.2°
